Location: Shepherdstown, WV
(39.4326°N, 77.8042°W)
Time: 06:35:43
(UTC-04:00)

Vanguard 1 - Pass Details

Date: 02 August 2021
Orbit: 652 x 3831 km, 34.3° (Epoch: 24 September)

Event Time Altitude Azimuth Distance (km) Brightness Sun altitude
Rises 18:32:04 0° 267° (W) 4,884 15.2 19.6°
Reaches altitude 10° 18:36:21 10° 249° (WSW) 4,400 14.6 18.8°
Maximum altitude 18:43:56 18° 211° (SSW) 4,555 13.9 17.4°
Drops below altitude 10° 18:54:10 10° 176° (S) 6,103 14.0 15.4°
Sets 19:02:16 0° 161° (SSE) 7,614 14.3 13.9°
